This is the latest recevied weather packets stored in our database for station/object EA1IDU-12. If no packets are shown the sender has not sent any weather packets the latest 10 day(s).
| Time | Temp. | Humidity | Pressure | Rain* | Wind** | Luminosity | Snow |
|---|---|---|---|---|---|---|---|
| 1787951411 | 13.89° C | 70% | 1030.3 hPa | - | - | - | - |
| 1787950510 | 13.89° C | 69% | 1030.3 hPa | - | - | - | - |
| 1787949610 | 14.44° C | 69% | 1030.4 hPa | - | - | - | - |
| 1787948710 | 15° C | 68% | 1030.3 hPa | - | - | - | - |
| 1787947810 | 15° C | 68% | 1030.2 hPa | - | - | - | - |
| 1787946910 | 15° C | 67% | 1030.1 hPa | - | - | - | - |
| 1787946010 | 15.56° C | 66% | 1030 hPa | - | - | - | - |
| 1787945109 | 16.11° C | 65% | 1029.9 hPa | - | - | - | - |
| 1787944209 | 17.22° C | 63% | 1029.6 hPa | - | - | - | - |
| 1787943309 | 17.78° C | 63% | 1029.6 hPa | - | - | - | - |
| 1787942409 | 18.33° C | 62% | 1029.5 hPa | - | - | - | - |
| 1787941509 | 18.89° C | 60% | 1029.5 hPa | - | - | - | - |
| 1787940609 | 20° C | 58% | 1029.6 hPa | - | - | - | - |
| 1787939709 | 21.11° C | 57% | 1029.5 hPa | - | - | - | - |
| 1787938808 | 22.22° C | 55% | 1029.5 hPa | - | - | - | - |
| 1787937908 | 22.78° C | 55% | 1029.5 hPa | - | - | - | - |
| 1787937008 | 22.78° C | 56% | 1029.5 hPa | - | - | - | - |
| 1787936108 | 23.33° C | 55% | 1029.6 hPa | - | - | - | - |
| 1787935208 | 23.89° C | 53% | 1029.5 hPa | - | - | - | - |
| 1787934308 | 23.89° C | 55% | 1029.4 hPa | - | - | - | - |
| 1787933407 | 25° C | 54% | 1029.4 hPa | - | - | - | - |
| 1787932507 | 25.56° C | 54% | 1029.5 hPa | - | - | - | - |
| 1787931607 | 25.56° C | 54% | 1029.5 hPa | - | - | - | - |
| 1787930707 | 24.44° C | 55% | 1029.4 hPa | - | - | - | - |
| 1787929807 | 24.44° C | 57% | 1029.4 hPa | - | - | - | - |
* Rain since midnight (hover to see other rain measurements)
** Current wind speed in m/s (hover to see current wind gust speed)